Total_Precipitation_Accumulation
2.03 2.00 1.87 1.84 1.60 1.66 1.97 2.28 2.18 2.32 2.50 2.35 2.06 1.92 1.83 1.66 1.63 1.57 1.69 1.89 1.80 1.88 2.17 2.25 2.20 2.06 1.98 1.81 1.64 1.55 1.48 1.36 1.14 0.86 0.70 0.66 0.60 0.51 0.46 0.44 0.40 0.37 0.32
2.27 2.25 2.04 1.96 1.67 1.64 1.87 2.14 2.17 2.35 2.40 2.41 2.01 1.83 1.75 1.80 1.77 1.63 1.70 1.90 1.87 1.71 1.87 2.19 2.40 2.44 2.31 2.17 1.93 1.72 1.59 1.50 1.27 0.94 0.74 0.69 0.65 0.59 0.59 0.61 0.53 0.40 0.30
2.49 2.44 2.27 1.99 1.85 1.92 2.02 2.04 2.11 2.49 2.34 2.23 2.03 2.03 1.98 1.94 1.80 1.73 1.69 1.86 1.69 1.60 1.61 1.78 2.10 2.37 2.63 2.61 2.36 2.14 1.85 1.59 1.31 1.01 0.80 0.66 0.60 0.58 0.60 0.61 0.62 0.49 0.33
2.46 2.57 2.24 1.88 2.02 2.18 2.20 2.19 2.22 2.44 2.45 2.51 2.42 2.27 2.10 1.95 1.54 1.46 1.49 1.55 1.68 1.43 1.56 1.77 1.90 2.02 2.46 2.82 2.94 2.90 2.42 1.90 1.49 1.15 0.92 0.75 0.67 0.62 0.56 0.52 0.51 0.50 0.38
1.89 1.95 1.65 1.55 1.70 1.80 1.69 1.62 1.93 2.13 2.22 2.32 2.21 2.05 1.76 1.61 1.43 1.33 1.36 1.20 1.30 1.34 1.41 1.63 1.82 1.85 2.28 2.91 3.47 3.68 3.33 2.66 2.03 1.53 1.29 1.14 0.98 0.79 0.64 0.56 0.53 0.50 0.41
1.47 1.56 1.30 1.23 1.44 1.57 1.56 1.67 1.80 1.80 1.74 1.80 1.60 1.45 1.34 1.16 1.16 1.14 1.01 1.00 1.00 1.00 1.20 1.48 1.69 1.49 1.96 2.68 3.27 3.58 3.65 3.25 2.61 2.13 1.90 1.66 1.47 1.15 0.80 0.63 0.57 0.52 0.43
1.48 1.58 1.32 1.42 1.46 1.49 1.50 1.54 1.61 1.54 1.33 1.47 1.70 1.50 1.21 1.05 1.01 0.91 0.86 0.90 0.83 0.90 1.12 1.36 1.54 1.64 1.53 1.65 2.13 2.64 3.26 3.59 3.20 2.67 2.42 2.18 1.98 1.60 1.14 0.90 0.71 0.58 0.50
1.35 1.37 1.37 1.15 1.18 1.29 1.20 1.23 1.47 1.47 1.25 1.32 1.58 1.66 1.43 1.35 1.13 0.70 0.73 0.79 0.80 0.93 1.08 1.16 1.42 1.66 1.63 1.82 1.48 1.69 2.49 3.14 3.46 3.35 2.96 2.47 2.12 1.75 1.41 1.22 0.96 0.76 0.66
1.12 1.14 1.12 1.09 1.16 1.13 1.18 1.22 1.28 1.36 1.28 1.16 1.24 1.59 1.49 1.30 1.09 0.85 0.75 0.73 0.85 1.03 1.11 1.22 1.26 1.36 1.49 1.81 1.80 1.59 1.88 2.09 2.91 3.55 3.41 2.73 2.04 1.61 1.45 1.46 1.36 1.08 0.91
1.09 1.01 0.99 0.96 1.03 1.05 1.22 1.05 1.11 1.21 1.24 1.08 1.08 1.16 1.16 1.20 1.21 1.09 0.90 0.81 0.85 1.00 1.14 1.17 1.28 1.40 1.43 1.57 1.79 1.64 1.44 1.47 1.99 2.72 3.11 2.99 2.43 1.83 1.54 1.65 1.95 1.88 1.46
1.09 1.02 1.00 1.03 1.04 1.01 1.04 1.07 1.19 1.14 1.11 1.06 1.06 1.10 1.19 1.19 1.12 1.14 1.12 0.98 0.88 0.78 0.88 1.08 1.25 1.37 1.37 1.48 1.78 1.70 1.56 1.44 1.35 1.57 2.07 2.46 2.49 2.19 1.88 1.96 2.45 2.79 2.62
1.14 1.14 1.08 1.11 1.06 1.03 1.03 1.03 1.08 1.07 1.12 1.16 1.08 1.07 1.22 1.28 1.19 1.19 1.13 1.03 0.94 0.77 0.78 0.98 1.26 1.42 1.42 1.41 1.28 1.25 1.31 1.28 1.17 1.14 1.29 1.55 1.86 2.04 2.09 2.27 2.67 3.12 3.39
1.07 1.17 1.15 1.11 1.10 1.09 1.05 1.05 1.04 1.01 1.10 1.22 1.15 1.05 1.05 1.07 1.15 1.19 1.16 1.05 1.02 0.91 1.03 1.04 1.08 1.26 1.26 1.35 1.35 1.22 1.01 0.97 0.88 0.87 1.00 1.14 1.36 1.64 1.84 2.00 2.33 2.70 2.99
1.05 1.12 1.12 1.04 0.99 0.99 0.98 1.10 1.01 1.00 1.12 1.20 1.15 1.30 1.21 1.07 1.19 1.23 1.24 1.29 1.21 1.18 1.31 1.22 1.12 1.16 1.23 1.32 1.32 1.16 0.92 0.93 0.84 0.76 0.73 0.73 0.82 0.96 1.11 1.27 1.45 1.69 1.92
1.08 1.11 1.02 1.02 1.00 0.96 0.97 1.06 1.04 1.08 1.16 1.14 1.21 1.39 1.39 1.27 1.23 1.25 1.34 1.51 1.64 1.50 1.38 1.28 1.17 1.10 1.17 1.25 1.25 1.07 0.97 1.01 0.90 0.76 0.69 0.68 0.70 0.75 0.80 0.82 0.85 0.93 0.98
1.09 1.15 1.14 1.04 1.04 1.04 1.08 1.17 1.15 1.15 1.26 1.32 1.46 1.56 1.55 1.48 1.46 1.38 1.41 1.50 1.63 1.68 1.49 1.20 1.17 1.12 1.10 0.96 1.03 0.93 0.88 0.98 0.84 0.76 0.72 0.70 0.67 0.69 0.70 0.70 0.67 0.70 0.74
1.02 1.04 1.07 1.09 1.09 1.13 1.30 1.54 1.51 1.44 1.46 1.52 1.61 1.72 1.75 1.82 1.81 1.63 1.57 1.52 1.54 1.67 1.50 1.25 1.22 1.17 1.03 0.90 0.90 0.86 0.83 0.84 0.80 0.82 0.73 0.66 0.61 0.60 0.62 0.64 0.65 0.65 0.66
0.93 0.85 0.90 0.98 0.97 1.07 1.29 1.60 1.73 1.70 1.68 1.62 1.70 1.92 1.93 1.89 1.80 1.67 1.68 1.60 1.58 1.71 1.63 1.45 1.42 1.33 1.24 1.09 1.01 0.97 0.84 0.81 0.83 0.96 0.86 0.73 0.67 0.63 0.60 0.58 0.59 0.61 0.65
0.97 0.96 0.99 1.00 1.08 1.15 1.20 1.37 1.55 1.62 1.65 1.64 1.75 1.82 1.83 1.88 1.80 1.73 1.65 1.62 1.60 1.74 1.83 1.70 1.68 1.66 1.51 1.34 1.25 1.12 0.98 0.96 0.82 0.84 0.85 0.78 0.73 0.69 0.66 0.65 0.65 0.64 0.61
1.07 1.08 1.11 1.15 1.21 1.24 1.24 1.32 1.46 1.55 1.61 1.65 1.75 1.82 1.83 1.82 1.88 1.96 1.85 1.80 1.85 1.92 1.99 1.94 1.87 1.95 1.87 1.65 1.47 1.30 1.14 1.04 0.95 0.79 0.82 0.84 0.79 0.70 0.63 0.58 0.55 0.55 0.59
1.13 1.17 1.27 1.29 1.28 1.21 1.16 1.36 1.49 1.50 1.62 1.70 1.71 1.68 1.73 1.90 1.99 2.00 1.85 1.86 1.97 1.96 1.93 1.95 1.91 2.00 2.00 1.85 1.56 1.31 1.22 1.18 1.10 0.95 0.88 0.76 0.74 0.72 0.68 0.67 0.66 0.63 0.59
1.25 1.33 1.40 1.42 1.36 1.18 1.35 1.48 1.50 1.52 1.60 1.65 1.66 1.59 1.52 1.56 1.65 1.73 1.69 1.63 1.67 1.74 1.81 1.82 1.84 1.89 1.93 1.84 1.65 1.46 1.34 1.23 1.17 1.13 1.14 1.09 0.96 0.95 0.83 0.73 0.76 0.73 0.68
1.37 1.39 1.40 1.42 1.40 1.45 1.47 1.35 1.30 1.22 1.28 1.35 1.36 1.33 1.16 1.09 1.31 1.39 1.53 1.52 1.42 1.39 1.41 1.55 1.67 1.70 1.83 1.88 1.83 1.62 1.54 1.44 1.28 1.24 1.28 1.28 1.20 1.08 0.90 0.86 0.94 0.81 0.78
1.60 1.59 1.50 1.51 1.58 1.58 1.55 1.34 1.25 1.13 1.13 1.15 1.15 1.11 1.10 1.09 1.15 1.25 1.31 1.32 1.28 1.23 1.23 1.24 1.35 1.54 1.71 1.87 1.87 1.77 1.72 1.60 1.41 1.29 1.28 1.31 1.23 1.14 1.00 0.95 1.01 0.91 0.84
1.87 1.86 1.82 1.85 1.87 1.92 1.85 1.57 1.43 1.26 1.21 1.17 1.19 1.22 1.22 1.13 1.18 1.14 1.13 1.16 1.17 1.22 1.22 1.22 1.24 1.42 1.60 1.72 1.85 1.80 1.73 1.62 1.45 1.32 1.25 1.23 1.19 1.22 1.16 1.03 0.93 0.88 0.75
2.17 2.16 2.18 2.19 2.11 2.07 2.03 1.67 1.46 1.27 1.30 1.28 1.32 1.27 1.21 1.08 1.04 0.98 0.99 1.06 1.04 1.04 1.14 1.17 1.18 1.28 1.41 1.54 1.69 1.66 1.57 1.57 1.43 1.30 1.17 1.16 1.14 1.17 1.20 1.05 0.89 0.77 0.69